Location: Goettingen
(51.5300°N, 9.9433°E)
Time: 06:17:40
(UTC+02:00)

ISS - Pass Details

Date: 10 May 2021
Orbit: 417 x 422 km, 51.6° (Epoch: 18 May)

Event Time Altitude Azimuth Distance (km) Brightness Sun altitude
Exits shadow 02:50:23 44° 258° (WSW) 590 -3.3 -17.9°
Maximum altitude 02:51:20 87° 173° (S) 426 -3.9 -17.8°
Drops below altitude 10° 02:54:44 10° 83° (E) 1,507 -0.5 -17.6°
Sets 02:56:50 0° 83° (E) 2,373 0.5 -17.5°
